Overview Statistics Trail Chart Weather Telemetry Raw packets
 

This is the latest recevied weather packets stored in our database for station/object W5GMO. If no packets are shown the sender has not sent any weather packets the latest 10 day(s).

<< 85 86 87 88 89 90 91 >>
Time Temp. Humidity Pressure Rain* Wind** Luminosity Snow
1788012268 23.89° C 1% 1024.4 hPa 0 mm - 494 W/m² -
1788011967 23.89° C 1% 1024.4 hPa 0 mm - 483 W/m² -
1788011666 23.33° C 1% 1024.4 hPa 0 mm - 472 W/m² -
1788011362 23.33° C 1% 1024.4 hPa 0 mm - 457 W/m² -
1788011061 22.78° C 1% 1024.3 hPa 0 mm - 444 W/m² -
1788010757 23.33° C 1% 1024.3 hPa 0 mm - 430 W/m² -
1788010455 22.78° C 1% 1024.2 hPa 0 mm - 419 W/m² -
1788010150 22.78° C 1% 1024.4 hPa 0 mm - 402 W/m² -
1788009844 22.78° C 1% 1024.3 hPa 0 mm - 387 W/m² -
1788009543 22.78° C 1% 1024.2 hPa 0 mm - 370 W/m² -
1788009238 22.78° C 1% 1024.2 hPa 0 mm - 361 W/m² -
1788008938 22.78° C 1% 1024.1 hPa 0 mm - 345 W/m² -
1788008634 22.22° C 1% 1024.2 hPa 0 mm - 334 W/m² -
1788008331 22.22° C 1% 1024.2 hPa 0 mm - 318 W/m² -
1788008029 22.22° C 1% 1024.1 hPa 0 mm - 306 W/m² -
1788007728 22.22° C 1% 1024 hPa 0 mm - 285 W/m² -
1788007424 22.22° C 1% 1024.1 hPa 0 mm - 270 W/m² -
1788007123 21.67° C 1% 1024.1 hPa 0 mm - 253 W/m² -
1788006823 21.67° C 1% 1024.2 hPa 0 mm - 234 W/m² -
1788006523 21.67° C 1% 1024.1 hPa 0 mm - 217 W/m² -
1788006217 21.67° C 1% 1024 hPa 0 mm - 205 W/m² -
1788005916 21.11° C 1% 1023.9 hPa 0 mm - 191 W/m² -
1788005611 21.11° C 1% 1024 hPa 0 mm - 176 W/m² -
1788005311 21.11° C 1% 1023.9 hPa 0 mm - 161 W/m² -
1788005010 21.11° C 1% 1023.7 hPa 0 mm - 142 W/m² -

* Rain latest hour (hover to see other rain measurements)
** Current wind speed in m/s (hover to see current wind gust speed)